Vorticity
6 6 6 6 5 5 5 5 6 6 6 6 6 6 6 6 6 6 6 6 6 6 5 5 4 4 4 4 5 5 5 6 6 6 7 7 8 8 8 8 9 9 10 10 10 10 10 9 8 8 8 9 9 9 9 9 9 8 9 9 9 9 9 9 9 9 9 9 9 9 10 10 10 10 10 10 10 10 10 10 10 10 9 9 9 9 9 9 9 9 9 9 9 8 8 8 8 8 8 8 8 8 8
6 6 5 5 5 5 5 6 6 6 6 6 7 7 7 7 7 6 6 6 5 5 4 4 4 4 5 5 5 6 6 7 7 7 8 8 9 9 9 9 9 10 10 10 10 10 9 9 9 8 9 9 9 9 8 8 8 8 8 8 8 8 8 8 8 8 9 9 9 9 9 10 10 10 10 10 10 10 10 10 10 10 10 10 10 10 10 10 10 10 10 9 9 9 9 9 9 8 8 8 8 8 8
5 6 6 5 6 6 6 6 7 7 7 7 7 7 7 7 7 6 5 5 4 4 4 4 5 5 6 6 6 7 7 8 8 8 9 9 9 9 9 9 10 10 10 10 10 9 9 9 9 8 8 8 8 8 8 8 8 8 8 8 8 8 8 8 8 8 9 9 9 9 9 10 10 10 10 10 10 10 10 10 10 10 10 10 10 10 10 10 10 10 10 10 10 10 10 10 10 9 9 9 9 9 9
6 6 6 6 6 6 7 7 8 8 8 8 8 8 7 6 6 5 4 4 4 4 5 5 6 6 7 7 8 8 8 8 9 9 9 9 9 9 9 9 9 9 10 9 9 9 8 8 8 8 8 8 8 8 8 8 8 8 8 8 8 8 8 8 9 9 9 9 9 9 9 9 9 9 9 9 9 9 9 9 9 9 9 10 10 10 10 10 10 10 10 10 10 10 10 10 10 10 10 10 10 10 10
6 6 6 6 7 7 8 8 8 8 8 8 8 7 6 6 5 4 4 4 5 5 6 6 7 7 8 8 8 9 9 9 9 9 9 9 9 9 9 9 9 9 9 8 8 8 8 8 8 8 7 7 7 7 7 7 8 8 8 8 8 8 8 9 9 9 9 9 9 9 9 8 8 8 8 8 8 8 8 8 8 8 8 8 8 8 8 9 9 9 9 10 10 10 10 10 10 11 11 11 11 11 10
6 6 6 6 7 8 8 9 9 8 8 8 7 6 5 5 4 4 5 5 6 6 7 8 8 8 8 9 9 9 9 9 9 9 9 8 8 8 8 8 8 8 8 8 8 8 8 7 7 7 7 7 7 7 7 7 8 8 8 8 8 9 9 9 9 9 8 8 8 8 7 7 7 6 6 6 6 6 6 6 6 6 7 7 7 7 8 8 8 8 8 9 9 9 9 10 10 10 10 10 11 11 11
6 6 7 7 7 8 8 9 8 8 7 7 6 5 5 5 5 5 6 6 7 7 8 8 8 8 9 9 9 9 9 8 8 8 8 8 8 8 8 8 8 8 7 7 7 7 7 7 7 7 7 7 7 7 7 8 8 8 8 8 8 9 8 8 8 8 7 7 6 6 6 6 5 5 5 5 6 6 6 6 6 6 7 7 7 7 8 8 8 8 8 8 8 9 9 9 9 9 10 10 10 10 10
7 7 7 7 8 8 8 8 8 7 6 6 5 5 5 5 6 6 7 7 8 8 8 8 8 9 9 9 9 9 8 8 8 8 8 8 8 8 8 7 7 7 7 7 7 7 7 7 7 7 7 7 7 7 8 8 8 8 8 8 8 8 8 7 7 6 6 6 5 5 5 5 5 5 6 6 6 6 7 7 7 7 7 7 8 8 8 8 8 8 8 8 8 8 8 8 8 9 9 9 9 9 10
7 7 8 8 8 8 8 8 7 6 6 5 5 5 5 6 6 7 7 8 8 8 8 8 8 8 8 9 9 8 8 8 8 8 8 8 8 8 7 7 7 7 7 7 7 7 7 7 7 7 7 8 8 8 8 8 8 8 8 8 8 7 7 6 6 6 5 5 5 5 5 6 6 6 7 7 7 7 8 8 8 8 8 8 8 8 8 8 8 8 8 8 8 8 8 8 8 8 8 8 8 8 9
7 8 8 8 8 8 8 7 7 6 5 5 5 6 6 6 6 7 7 8 8 8 8 8 8 9 9 9 9 9 8 8 8 8 8 8 8 7 7 7 7 7 7 7 7 7 7 8 8 8 8 8 8 8 8 8 8 8 8 7 7 6 6 6 5 5 5 5 6 6 6 7 7 7 8 8 8 8 8 8 8 8 8 8 8 8 8 8 8 8 8 8 8 8 8 8 8 8 8 8 8 8 8
8 8 8 8 8 8 7 6 6 6 5 5 6 6 6 6 7 7 7 8 8 8 8 8 9 9 9 9 9 8 8 8 8 8 8 7 7 7 7 7 7 7 7 7 8 8 8 8 8 8 8 8 8 8 8 8 8 8 7 6 6 6 5 5 5 5 6 6 6 7 7 7 8 8 8 8 8 8 8 8 8 8 8 8 8 8 8 8 8 8 8 8 8 8 8 8 8 8 8 8 8 8 8
8 8 8 8 8 7 7 6 6 5 5 5 6 6 6 6 7 7 8 8 8 8 8 9 9 9 9 9 9 8 8 8 8 8 7 7 7 7 7 7 7 7 8 8 8 8 8 8 8 8 8 8 8 8 8 8 7 7 6 6 5 5 5 5 5 6 6 7 7 7 7 7 7 8 7 7 7 7 7 7 7 7 8 8 8 8 8 8 8 8 8 8 8 8 8 8 8 8 8 8 8 8 9
8 8 8 8 7 7 6 6 5 5 5 5 6 6 6 7 7 7 8 8 8 9 9 9 9 9 9 9 8 8 8 8 7 7 7 7 7 7 7 7 7 8 8 8 8 9 9 8 8 8 8 8 8 8 7 7 6 6 5 5 5 5 5 6 6 6 7 7 7 7 7 7 7 7 7 7 7 7 7 7 7 7 7 7 7 7 7 7 8 8 8 8 8 8 8 8 8 8 8 8 8 8 8
8 8 8 8 7 6 6 5 5 5 5 5 6 6 6 7 7 7 8 8 9 9 9 9 9 9 9 8 8 8 7 7 7 7 7 7 7 7 7 8 8 8 8 9 9 9 9 8 8 8 8 8 7 7 6 6 5 5 5 5 5 5 6 6 6 6 7 7 7 6 6 6 6 6 6 6 6 6 6 6 6 6 6 6 6 6 7 7 7 7 7 7 8 8 8 8 8 8 8 8 8 8 8
8 8 8 7 7 6 6 5 5 5 5 6 6 6 7 7 7 8 8 8 9 9 9 9 9 9 9 8 8 7 7 7 7 7 7 7 7 8 8 8 8 8 8 9 9 9 8 8 8 7 7 7 7 6 6 5 5 4 5 5 5 6 6 6 6 6 6 6 6 6 6 6 6 6 6 6 6 6 6 6 6 6 6 6 6 6 6 6 6 6 6 6 6 6 7 7 7 7 7 7 7 7 8
8 8 8 7 7 6 6 5 5 5 5 6 6 7 7 7 7 8 8 8 9 9 9 9 9 8 8 8 7 7 7 7 7 7 7 7 8 8 8 8 8 8 8 8 8 8 8 7 7 7 7 6 6 6 5 4 4 4 5 5 6 6 6 6 6 6 6 6 6 6 5 5 5 5 5 5 5 5 5 5 5 5 5 5 5 5 5 5 5 5 5 5 5 5 5 5 5 5 6 6 6 6 6
8 8 8 7 7 6 6 5 5 5 5 6 6 7 7 7 7 7 8 8 9 9 9 9 8 8 8 7 7 6 6 7 7 7 7 7 7 7 7 7 8 8 8 8 8 8 7 7 7 6 6 6 6 5 5 4 4 4 5 5 5 6 6 6 6 6 6 5 5 5 5 5 5 5 5 5 5 5 5 5 4 4 4 4 4 4 4 4 4 3 3 3 3 3 3 3 3 3 4 4 4 5 5
8 8 8 7 6 6 6 5 5 5 5 6 6 7 7 7 7 7 7 8 8 8 8 8 8 8 7 7 6 6 6 7 7 7 7 7 7 7 7 7 7 7 7 8 8 7 7 6 6 6 6 5 5 5 4 4 4 4 5 5 5 5 5 5 5 5 5 5 5 5 5 5 5 5 5 5 5 4 4 4 4 4 4 3 3 3 3 3 2 2 2 2 2 2 2 2 2 2 2 2 2 3 3
8 8 7 7 6 6 6 5 5 5 6 6 6 7 7 7 7 7 7 8 8 8 8 8 8 7 6 6 6 6 6 7 7 7 7 7 7 7 7 7 7 7 7 7 7 7 6 6 6 6 5 5 5 4 4 4 4 4 5 5 5 5 5 5 5 5 5 5 5 5 4 4 4 4 4 4 4 4 4 4 3 3 3 3 2 2 2 2 2 2 2 2 2 2 2 2 2 1 1 1 2 2 2
8 8 7 7 6 6 6 5 5 5 5 6 6 7 7 7 7 7 7 8 8 8 8 8 7 7 6 6 6 6 6 7 7 7 7 7 7 7 7 7 7 7 7 7 7 6 6 6 5 5 5 4 4 4 4 4 4 4 4 4 4 5 5 5 5 5 5 5 4 4 4 4 4 4 4 4 4 3 3 3 3 2 2 2 2 2 2 2 2 2 2 2 2 2 2 2 2 2 2 2 2 2 2
8 8 7 7 7 6 6 5 5 5 5 6 6 6 7 7 7 7 7 7 8 8 8 7 7 6 6 6 6 6 6 6 6 7 7 7 7 7 7 7 7 7 7 7 6 6 6 5 5 5 4 4 4 4 4 4 4 4 4 4 4 4 4 4 4 4 4 4 4 4 4 4 4 3 3 3 3 3 2 2 2 2 2 2 2 1 1 1 1 1 1 2 2 2 2 2 2 2 2 2 2 2 2
8 8 8 7 7 6 6 6 5 5 5 6 6 6 7 7 7 7 7 7 7 8 8 7 7 7 6 6 6 6 6 6 6 6 7 7 7 7 7 7 7 7 7 7 6 6 6 5 5 4 4 4 4 4 4 4 4 4 4 4 4 4 4 4 4 4 4 4 4 4 3 3 3 3 3 3 2 2 2 2 2 2 2 1 1 1 1 1 1 1 2 2 2 2 2 2 2 2 2 3 3 3 3
8 8 8 8 7 7 6 6 5 5 5 5 6 6 7 7 8 8 7 7 7 7 7 7 7 7 6 6 6 6 6 6 6 6 6 6 6 6 6 7 7 7 7 7 7 6 6 5 5 4 4 4 4 4 3 3 3 3 3 3 4 4 4 4 4 4 4 4 3 3 3 3 3 2 2 2 2 2 2 2 2 2 2 1 1 1 1 2 2 2 2 2 2 2 2 2 2 2 2 2 2 3 3
8 8 8 8 8 7 6 6 5 5 5 5 6 6 7 7 8 8 8 8 7 7 7 7 7 7 6 6 6 6 6 6 6 6 6 6 6 6 6 6 6 6 7 6 6 6 6 6 5 5 4 4 4 3 3 3 3 3 3 3 3 3 3 3 3 3 3 3 3 3 3 3 2 2 2 2 2 2 2 2 2 2 2 2 2 2 2 2 2 2 2 2 2 2 2 2 2 2 2 2 2 2 2
8 8 8 8 8 7 6 6 5 5 5 5 5 6 6 7 8 8 8 8 7 7 7 7 7 6 6 6 6 6 6 6 6 6 6 6 6 6 6 6 6 6 6 6 6 6 6 5 5 5 4 4 4 3 3 3 3 3 3 3 3 3 3 3 3 3 3 3 3 3 2 2 2 2 2 2 2 2 2 2 2 2 2 2 2 2 2 2 2 2 2 2 2 2 2 2 2 2 2 2 2 2 2
8 8 8 8 7 7 6 6 5 5 5 5 5 5 6 7 7 8 8 8 7 7 7 7 7 6 6 6 6 6 6 6 6 6 6 6 6 6 6 6 6 6 6 5 5 5 5 5 5 4 4 4 4 3 3 3 3 3 3 3 2 2 2 2 2 2 2 2 2 2 2 2 2 2 2 2 2 2 2 2 2 2 2 2 2 2 2 2 2 2 2 2 2 2 2 2 2 2 2 2 2 2 2
8 8 7 7 7 7 6 6 6 5 5 5 5 5 6 6 7 8 8 8 8 7 7 7 6 6 6 6 6 6 6 6 6 6 6 6 6 6 6 6 5 5 5 5 5 5 5 5 4 4 4 4 4 3 3 3 3 3 3 2 2 2 2 2 2 2 2 2 2 2 2 2 2 2 2 2 2 2 2 2 2 2 2 2 2 2 2 2 2 2 2 2 2 2 2 2 2 2 2 2 2 2 2
7 7 7 7 7 7 7 6 6 5 5 5 5 5 6 6 7 7 8 8 8 7 7 7 6 6 6 6 5 5 5 5 5 5 5 5 5 6 6 5 5 5 5 5 5 5 5 4 4 4 4 4 4 3 3 3 3 3 2 2 2 2 2 2 2 2 2 2 1 1 1 1 1 1 1 1 1 1 2 2 2 2 2 2 2 2 2 2 2 2 2 2 2 2 3 3 3 3 3 3 4 4 4
7 7 7 7 7 7 7 6 6 5 5 5 5 5 5 6 7 7 8 8 8 8 7 7 6 6 6 5 5 5 4 4 4 4 4 5 5 5 5 5 5 5 5 5 5 4 4 4 4 4 4 4 4 4 3 3 3 3 3 2 2 2 2 2 2 2 2 1 1 1 1 1 1 1 1 1 2 2 2 2 2 2 2 2 2 3 3 3 3 3 3 3 3 3 4 4 4 4 4 5 5 5 6
7 7 7 7 7 7 7 6 6 5 5 5 5 5 5 6 6 7 7 7 7 7 7 7 6 6 6 6 5 5 4 4 4 4 4 4 4 4 4 5 4 4 4 4 4 4 4 4 4 4 4 4 4 4 4 3 3 3 3 3 2 2 2 2 2 2 2 2 1 1 1 1 1 1 2 2 2 2 2 2 2 3 3 3 3 3 3 3 4 4 4 4 4 4 5 5 5 5 6 6 6 7 7
7 8 8 8 8 7 7 7 6 6 5 5 5 5 5 5 6 6 6 7 7 7 7 7 6 6 6 6 5 5 5 4 4 4 4 4 4 4 4 4 4 4 4 4 4 4 4 4 4 4 4 4 4 3 3 3 3 3 3 3 3 3 3 2 2 2 2 2 2 2 2 2 2 2 2 2 2 3 3 3 3 4 4 4 4 4 4 4 4 5 5 5 5 6 6 6 6 7 7 7 7 8 8
7 7 8 8 8 8 7 7 6 6 6 5 5 5 5 5 5 5 6 6 7 7 7 7 6 6 6 6 5 5 5 5 4 4 4 4 4 4 4 4 4 4 3 4 4 4 4 4 4 4 4 3 3 3 3 3 3 3 3 3 3 3 3 3 2 2 2 2 2 2 2 2 2 3 3 3 3 3 4 4 4 5 5 5 5 5 5 5 5 6 6 6 6 7 7 7 7 8 8 8 8 8 8
7 7 7 8 8 8 7 7 7 6 6 5 5 5 5 4 4 5 5 6 6 6 6 6 6 6 6 6 5 5 5 5 5 4 4 4 4 4 4 4 4 3 3 3 3 3 3 3 3 4 4 4 4 3 3 3 3 3 3 3 3 3 3 3 3 3 2 2 2 3 3 3 3 3 4 4 4 4 5 5 5 6 6 6 6 6 6 6 6 6 6 7 7 7 8 8 8 8 8 8 8 8 7
7 7 7 7 8 8 8 7 7 6 6 6 5 5 5 4 4 4 4 5 5 5 6 6 6 6 6 6 5 5 4 4 5 4 4 4 4 4 4 4 3 3 3 3 3 3 3 3 3 3 4 4 4 4 4 4 3 3 3 3 3 3 3 3 3 3 3 3 3 3 4 4 4 4 4 4 5 5 6 6 6 6 6 7 7 7 7 7 7 7 7 7 7 8 8 8 8 8 7 7 7 6 6
7 7 7 7 8 8 8 7 7 7 6 6 6 5 5 5 4 4 4 4 4 5 5 5 5 5 5 5 5 5 4 4 4 4 4 4 4 4 4 4 3 3 3 3 3 3 3 3 3 3 4 4 4 4 4 4 4 3 3 3 3 3 3 3 3 3 4 4 4 4 4 5 5 5 5 5 6 6 6 6 6 7 7 7 7 7 7 7 7 8 8 8 8 8 8 7 7 6 6 6 5 5 4
7 7 7 7 8 8 8 7 7 7 7 6 6 6 6 5 5 5 5 4 4 4 4 5 5 5 5 5 5 5 4 4 4 4 4 4 4 4 4 4 4 3 3 3 3 3 3 3 3 3 3 3 4 4 4 4 4 3 3 3 3 3 4 4 4 4 4 4 5 5 5 6 6 6 6 6 6 6 6 6 6 7 7 7 7 8 8 8 8 8 8 8 8 7 7 6 5 4 4 4 4 4 4
6 7 7 7 7 8 8 7 7 6 7 7 7 6 6 6 5 5 5 5 5 5 5 5 5 5 5 5 5 5 5 5 4 4 4 4 4 4 4 4 4 4 4 3 3 3 3 3 3 3 3 3 3 3 3 4 4 3 3 4 4 4 4 4 4 4 5 5 6 6 6 6 7 7 7 7 7 7 7 7 7 7 7 7 7 8 8 8 8 8 8 8 7 6 6 5 4 4 4 5 5 5 5
6 6 7 7 7 8 8 7 6 6 6 7 7 7 7 6 6 6 5 5 5 5 5 5 5 5 5 5 5 5 5 5 5 4 4 4 4 4 4 4 4 4 4 3 4 4 4 3 3 3 3 3 3 3 4 4 4 4 4 4 4 4 4 4 4 5 5 6 6 6 7 7 7 8 8 8 8 8 7 7 7 7 7 7 7 7 8 8 8 8 8 7 6 5 3 3 3 5 7 8 10 10 10
6 6 7 7 7 7 8 7 6 6 6 7 7 7 8 7 7 6 6 6 5 5 5 5 5 5 5 5 5 5 5 5 5 4 4 4 4 4 4 4 4 4 4 3 4 4 4 3 3 3 3 3 3 4 4 4 4 4 4 4 4 4 4 5 5 5 6 6 6 6 7 7 8 8 8 8 8 8 7 7 7 7 7 7 7 7 7 7 8 8 8 7 5 3 0 -0 0 2 6 10 13 15 16
6 6 6 7 7 7 7 7 6 6 6 6 7 7 8 8 7 7 7 6 6 6 5 5 5 5 5 5 5 5 5 5 5 4 5 4 4 4 4 4 4 4 4 4 4 4 4 4 4 4 3 4 4 4 4 4 4 4 4 4 4 5 5 5 5 6 6 6 6 6 6 7 8 8 8 8 7 7 7 6 6 6 6 6 5 5 6 6 7 7 8 7 5 3 0 -2 -3 -2 -1 2 5 8 11
6 6 6 7 7 8 8 7 7 6 6 6 6 7 7 8 8 7 7 7 6 6 6 6 6 5 5 5 5 5 5 5 5 5 5 5 5 5 4 4 4 4 4 4 4 4 4 4 4 4 4 4 4 4 4 4 4 4 4 5 5 5 5 6 6 6 6 6 6 6 6 7 8 8 8 7 6 6 6 6 6 6 5 5 4 4 4 5 6 6 7 7 6 5 3 2 0 -1 -2 -3 -4 -4 -3
6 6 7 7 7 8 8 7 7 6 6 6 6 7 7 7 7 8 8 8 7 7 6 6 6 6 6 6 5 5 5 5 5 5 5 5 5 5 5 4 4 4 4 5 5 5 5 5 4 4 4 4 4 4 4 4 5 5 5 5 6 6 6 6 6 6 6 6 5 5 5 6 7 7 6 5 4 4 4 5 5 5 6 6 5 5 5 4 5 5 6 6 6 6 6 6 5 5 5 3 2 -1 -3
7 7 7 7 8 8 8 7 7 6 6 6 6 6 6 6 7 7 7 7 7 7 7 7 7 7 6 6 6 6 6 5 5 5 5 5 5 5 5 5 4 4 4 4 5 5 5 5 5 5 5 5 5 5 5 5 5 6 6 6 6 6 6 7 7 7 6 5 4 4 4 5 6 6 5 3 2 1 2 3 4 5 5 6 6 6 6 5 5 5 5 5 5 5 6 6 6 7 8 8 8 8 7
7 7 7 7 7 7 7 7 6 6 6 6 6 6 6 6 6 6 6 7 7 7 8 7 7 7 7 6 6 6 6 6 6 6 6 6 6 6 5 5 5 5 5 5 5 5 5 5 6 6 6 6 6 6 6 6 7 7 7 7 7 7 7 7 7 6 6 4 4 3 3 4 6 6 6 3 0 -1 -1 1 2 4 4 4 5 6 6 6 5 5 5 5 4 4 4 4 5 5 6 8 10 11 11
7 7 6 6 6 6 6 6 6 6 6 6 6 6 6 6 6 6 6 6 6 7 8 8 8 7 7 7 7 7 6 7 7 7 7 6 6 6 6 6 6 6 6 6 6 6 6 6 6 6 7 7 7 7 7 7 8 8 7 7 7 7 7 7 7 6 5 4 3 3 3 4 6 7 7 5 3 0 -1 -1 -0 0 1 2 3 4 5 5 5 4 4 4 4 3 3 3 3 3 4 7 8 10 10
6 6 5 5 5 5 5 6 6 6 6 6 6 6 6 6 6 6 6 6 6 6 7 8 9 8 7 7 7 7 7 7 7 7 7 7 7 6 6 6 6 6 6 6 6 6 6 7 7 7 7 7 7 7 7 8 8 7 7 7 7 6 7 7 7 6 6 5 4 4 4 5 6 7 7 7 6 5 4 3 2 2 1 2 2 3 4 4 4 3 3 3 3 3 3 2 2 3 4 6 8 10 10
5 5 4 4 4 4 4 5 5 6 6 6 6 6 6 6 6 6 6 7 6 6 6 7 8 9 9 8 8 7 7 7 7 7 7 7 6 6 6 6 6 6 6 6 7 7 7 7 7 7 7 7 7 7 7 7 7 7 7 7 7 7 7 7 7 7 6 6 6 6 6 6 6 6 6 6 7 7 7 7 7 6 6 6 6 6 5 5 4 4 4 4 4 4 4 4 4 5 6 8 10 10 10
4 4 4 3 3 3 4 4 5 5 5 5 5 6 6 6 6 6 6 6 6 6 6 6 7 8 9 9 8 8 7 7 7 7 7 6 6 6 6 6 6 7 7 7 7 7 7 7 7 7 7 7 7 7 7 7 7 7 8 8 8 8 8 8 8 7 7 7 7 7 7 6 6 6 6 6 6 7 7 8 8 8 8 8 8 8 7 7 7 6 6 6 6 7 7 7 8 8 9 10 10 10 10
3 3 3 3 3 3 3 4 5 5 6 5 5 5 6 6 6 6 6 6 6 6 7 6 6 7 7 8 8 8 7 7 7 6 6 6 6 6 7 7 8 8 8 8 8 8 8 7 8 8 8 8 8 7 8 8 8 9 9 9 9 9 8 8 7 7 7 7 7 7 7 6 6 6 6 6 6 6 7 7 7 7 7 8 8 8 8 8 8 8 8 8 8 9 10 10 11 11 11 11 10 10 9
3 3 3 3 3 3 4 4 5 6 6 6 6 6 6 6 5 5 6 6 6 6 7 7 6 6 7 7 7 8 7 7 6 6 6 6 6 7 7 8 8 8 8 9 10 10 9 9 9 9 9 8 8 8 9 9 9 9 9 8 8 8 7 7 7 6 7 7 7 6 6 6 6 6 6 7 7 7 7 7 7 7 7 7 7 8 8 8 8 8 8 8 9 10 11 11 12 12 11 11 10 10 10
3 4 4 4 4 4 4 5 6 7 8 8 8 7 7 6 6 5 5 5 6 6 6 6 7 7 6 6 7 7 7 7 7 6 6 7 7 7 7 5 5 5 7 8 11 11 10 9 8 8 7 7 8 8 9 8 8 7 7 6 6 6 6 6 6 6 6 6 6 6 7 7 7 7 7 8 8 8 8 8 8 8 8 8 8 8 8 8 8 9 9 9 10 10 11 11 12 12 12 12 12 12 12
4 4 5 5 5 6 6 6 7 8 9 9 9 9 8 7 7 6 5 5 5 5 5 5 6 6 7 6 6 6 6 7 7 6 6 6 6 6 6 5 6 6 6 5 5 5 5 5 5 4 4 5 6 6 6 6 5 5 4 4 4 5 5 5 5 6 6 6 7 7 8 8 8 8 8 9 9 9 9 9 9 9 9 9 9 9 9 9 9 9 9 10 10 10 11 11 11 11 12 12 12 12 13
5 5 6 6 6 6 7 7 8 9 10 10 10 9 9 8 8 7 6 6 5 5 5 5 5 5 4 5 5 5 5 5 5 5 6 5 4 4 6 7 7 6 6 6 4 3 3 3 3 4 4 6 6 6 5 5 4 4 4 4 5 5 5 5 6 6 7 7 8 8 9 9 9 9 9 9 9 10 10 10 10 10 10 9 9 9 9 9 9 9 10 10 10 11 11 11 12 12 12 12 12 12 12
6 6 7 6 6 7 7 7 8 9 10 9 9 9 9 9 8 8 7 6 6 5 5 6 6 6 5 5 4 2 2 3 3 4 5 5 4 4 5 6 6 4 4 5 7 7 6 6 7 8 7 7 7 7 6 6 6 6 6 6 6 6 6 6 7 7 8 8 9 10 10 10 10 10 10 10 10 10 10 10 10 9 9 8 8 8 9 10 10 10 11 11 12 12 12 12 12 12 12 12 12 12 12
7 7 7 7 6 6 6 7 8 9 9 9 8 8 9 8 8 7 7 6 6 5 5 5 6 6 6 5 5 4 2 3 4 4 4 6 7 6 2 2 3 4 5 6 6 6 7 8 8 8 6 6 6 6 6 6 7 8 8 8 8 8 8 8 8 8 9 10 10 10 10 10 10 10 10 10 10 9 9 9 8 8 8 8 8 9 10 11 12 13 13 13 14 14 14 14 14 13 13 13 12 12 12
7 7 7 6 6 5 6 7 8 9 9 8 8 8 8 8 7 7 7 7 7 6 5 5 5 6 6 4 5 5 5 3 4 5 5 6 7 8 5 2 2 4 5 5 5 5 5 6 6 5 3 4 5 6 6 7 7 8 8 8 8 8 8 9 9 10 10 10 10 10 10 10 9 9 9 9 9 8 8 7 7 7 8 9 10 11 12 13 13 13 13 13 13 13 14 13 13 13 13 13 12 12 13
7 7 6 5 5 5 6 7 8 9 9 8 8 7 7 7 7 8 8 8 8 7 6 4 4 6 7 5 4 4 4 2 2 4 6 6 6 7 7 6 6 7 6 5 4 3 3 4 5 5 4 4 5 6 6 7 8 8 8 8 8 9 9 10 10 10 10 10 10 10 9 9 9 9 9 8 8 8 7 7 8 8 10 11 12 12 12 12 12 12 11 11 11 11 11 11 11 11 11 11 11 12 12
7 6 6 5 4 4 5 7 8 9 9 8 8 7 7 7 8 8 8 8 8 7 6 5 5 6 6 6 4 2 2 3 2 2 4 5 6 6 7 8 9 10 12 9 5 2 1 4 5 4 2 3 5 7 7 7 8 8 8 9 9 9 10 10 10 10 10 10 10 9 9 9 9 9 8 8 8 8 8 8 10 10 11 12 11 11 10 10 10 9 9 9 9 9 9 9 9 9 9 10 10 11 12
6 6 5 4 4 4 5 6 7 8 8 8 7 7 7 8 8 7 7 8 8 7 6 6 7 7 7 5 4 4 2 4 5 5 3 4 5 6 6 7 7 7 8 7 7 6 3 4 4 3 1 2 3 6 8 8 8 8 8 9 9 10 10 10 10 10 10 10 10 9 9 9 9 9 9 9 8 8 9 10 11 11 11 10 10 9 9 8 8 8 8 7 7 7 7 7 7 8 8 8 9 10 11
6 5 4 4 4 5 6 6 6 6 7 7 7 7 7 8 7 7 7 8 7 7 6 6 6 7 8 5 4 5 6 7 7 6 4 4 5 6 7 6 6 6 5 5 6 7 9 8 5 3 4 2 2 3 6 8 9 8 8 8 8 9 9 9 10 10 10 10 10 10 10 10 10 10 10 9 9 10 10 11 11 11 10 9 8 8 8 7 7 7 7 6 6 6 6 6 6 7 7 8 9 10 11
5 4 4 4 5 6 6 6 6 6 6 6 7 7 7 8 8 8 8 8 7 7 6 5 6 7 7 6 5 4 4 6 6 5 5 5 5 5 7 6 5 5 4 5 5 6 7 8 7 6 5 4 3 4 5 7 8 8 8 8 8 8 8 9 10 10 10 10 10 10 10 10 10 10 10 9 9 10 10 10 10 9 8 8 7 7 7 6 6 6 6 6 6 6 5 6 6 6 6 7 8 10 11
Height
3162 3162 3162 3161 3161 3161 3161 3161 3160 3160 3160 3160 3159 3159 3159 3159 3159 3159 3158 3158 3158 3158 3158 3157 3157 3157 3157 3156 3156 3156 3156 3155 3155 3155 3155 3154 3154 3154 3153 3153 3153 3152 3152 3152 3151 3151 3151 3150 3149 3149 3149 3149 3148 3148 3148 3147 3147 3146 3146 3145 3145 3145 3144 3144 3144 3143 3143 3142 3142 3142 3141 3141 3140 3139 3139 3139 3138 3138 3137 3136 3136 3135 3135 3134 3134 3133 3133 3132 3132 3131 3130 3130 3129 3129 3128 3128 3127 3127 3126 3126 3125 3124 3124
3162 3162 3161 3161 3161 3161 3161 3160 3160 3160 3160 3160 3159 3159 3159 3159 3159 3159 3158 3158 3158 3158 3158 3157 3157 3157 3157 3156 3156 3156 3156 3155 3155 3155 3154 3154 3154 3153 3153 3153 3152 3152 3152 3151 3151 3151 3150 3150 3149 3149 3149 3148 3148 3148 3147 3147 3147 3146 3146 3145 3145 3144 3144 3144 3143 3143 3143 3142 3142 3141 3141 3140 3140 3139 3139 3139 3138 3137 3137 3136 3136 3135 3134 3134 3134 3133 3132 3132 3131 3131 3130 3129 3129 3128 3128 3127 3127 3126 3126 3125 3124 3124 3123
3162 3161 3161 3161 3161 3161 3161 3160 3160 3160 3160 3159 3159 3159 3159 3159 3159 3159 3159 3158 3158 3158 3158 3157 3157 3157 3156 3156 3156 3156 3155 3155 3155 3154 3154 3154 3154 3153 3153 3152 3152 3152 3151 3151 3151 3150 3150 3150 3149 3149 3149 3148 3148 3148 3147 3147 3146 3146 3146 3145 3145 3144 3144 3144 3143 3143 3142 3142 3141 3141 3140 3140 3139 3139 3139 3138 3138 3137 3137 3136 3135 3135 3134 3134 3133 3133 3132 3131 3131 3130 3130 3129 3129 3128 3127 3127 3126 3126 3125 3124 3124 3123 3123
3162 3161 3161 3161 3161 3161 3161 3160 3160 3160 3160 3160 3160 3159 3159 3159 3159 3159 3159 3158 3158 3158 3157 3157 3157 3157 3156 3156 3156 3155 3155 3155 3154 3154 3154 3154 3153 3153 3153 3152 3152 3152 3151 3151 3151 3150 3150 3149 3149 3149 3148 3148 3148 3147 3147 3147 3146 3146 3145 3145 3144 3144 3144 3144 3143 3143 3142 3141 3141 3140 3140 3140 3139 3139 3138 3138 3137 3137 3136 3136 3135 3134 3134 3134 3133 3132 3132 3131 3130 3130 3129 3129 3128 3128 3127 3126 3126 3125 3124 3124 3123 3123 3122
3161 3161 3161 3161 3161 3161 3160 3160 3160 3160 3160 3159 3160 3160 3160 3159 3159 3158 3158 3158 3158 3157 3157 3157 3157 3156 3156 3156 3155 3155 3155 3154 3154 3154 3154 3153 3153 3153 3152 3152 3152 3151 3151 3151 3150 3150 3150 3149 3149 3149 3148 3148 3148 3147 3147 3147 3146 3146 3145 3145 3144 3144 3144 3143 3143 3142 3142 3141 3141 3140 3140 3139 3139 3139 3138 3138 3137 3137 3136 3135 3135 3134 3134 3133 3133 3132 3131 3130 3130 3129 3129 3128 3128 3127 3126 3126 3125 3124 3124 3123 3123 3122 3121
3161 3161 3161 3161 3160 3160 3160 3161 3160 3160 3159 3159 3159 3159 3159 3159 3158 3158 3158 3158 3158 3157 3157 3157 3156 3156 3156 3155 3155 3155 3155 3154 3154 3154 3154 3153 3153 3153 3152 3152 3152 3151 3151 3151 3150 3150 3149 3149 3149 3149 3148 3148 3148 3147 3147 3146 3146 3146 3145 3145 3144 3144 3144 3143 3143 3142 3142 3141 3141 3140 3140 3139 3139 3138 3138 3137 3137 3136 3136 3135 3134 3134 3133 3133 3132 3131 3131 3130 3130 3129 3129 3128 3127 3127 3126 3125 3125 3124 3124 3123 3122 3121 3121
3161 3161 3161 3161 3160 3160 3161 3160 3160 3160 3159 3159 3159 3159 3159 3159 3158 3158 3158 3158 3157 3157 3157 3156 3156 3156 3156 3155 3155 3155 3154 3154 3154 3154 3153 3153 3153 3153 3152 3152 3152 3151 3151 3150 3150 3150 3149 3149 3149 3148 3148 3148 3147 3147 3147 3146 3146 3145 3145 3145 3144 3144 3144 3143 3143 3142 3142 3141 3141 3140 3140 3139 3139 3138 3138 3137 3137 3136 3135 3135 3134 3134 3133 3132 3132 3131 3130 3130 3129 3129 3128 3127 3127 3126 3125 3125 3124 3124 3123 3122 3122 3121 3120
3161 3161 3161 3160 3160 3160 3160 3160 3160 3159 3159 3159 3159 3159 3159 3159 3159 3158 3158 3158 3157 3157 3157 3156 3156 3156 3155 3155 3155 3155 3154 3154 3154 3154 3153 3153 3153 3152 3152 3152 3151 3151 3151 3150 3150 3149 3149 3149 3149 3148 3148 3148 3147 3147 3146 3146 3146 3145 3145 3144 3144 3144 3143 3143 3142 3142 3141 3141 3140 3140 3139 3139 3139 3138 3137 3137 3136 3136 3135 3134 3134 3133 3133 3132 3131 3131 3130 3129 3129 3128 3128 3127 3126 3126 3125 3124 3124 3123 3122 3122 3121 3120 3120
3161 3160 3160 3160 3160 3160 3160 3160 3160 3160 3159 3159 3159 3159 3159 3159 3158 3158 3158 3157 3157 3157 3156 3156 3156 3155 3155 3155 3155 3154 3154 3154 3154 3154 3153 3153 3153 3152 3152 3152 3151 3151 3151 3150 3150 3149 3149 3149 3149 3148 3148 3147 3147 3147 3146 3146 3146 3145 3145 3144 3144 3144 3143 3143 3142 3142 3141 3141 3140 3140 3139 3139 3138 3138 3137 3137 3136 3135 3135 3134 3134 3133 3132 3132 3131 3130 3130 3129 3129 3128 3127 3126 3126 3125 3124 3124 3123 3123 3122 3121 3120 3120 3119
3161 3160 3160 3160 3160 3160 3160 3160 3160 3159 3159 3159 3159 3159 3159 3158 3158 3158 3157 3157 3157 3157 3156 3156 3156 3155 3155 3155 3155 3154 3154 3154 3154 3153 3153 3153 3152 3152 3152 3151 3151 3151 3150 3150 3150 3149 3149 3149 3148 3148 3148 3147 3147 3147 3146 3146 3146 3145 3145 3144 3144 3144 3143 3143 3142 3142 3141 3141 3140 3140 3139 3139 3138 3137 3137 3136 3136 3135 3134 3134 3133 3133 3132 3131 3131 3130 3129 3129 3128 3127 3127 3126 3125 3125 3124 3124 3123 3122 3121 3121 3120 3119 3119
3160 3160 3160 3160 3160 3160 3160 3160 3160 3159 3159 3159 3159 3159 3159 3158 3158 3158 3157 3157 3157 3156 3156 3156 3155 3155 3155 3155 3155 3154 3154 3154 3154 3153 3153 3153 3152 3152 3152 3151 3151 3151 3150 3150 3150 3149 3149 3149 3148 3148 3148 3147 3147 3147 3146 3146 3146 3145 3145 3144 3144 3144 3143 3143 3142 3142 3141 3140 3140 3139 3139 3138 3138 3137 3137 3136 3135 3135 3134 3134 3133 3132 3132 3131 3130 3129 3129 3128 3128 3127 3126 3126 3125 3124 3124 3123 3122 3122 3121 3120 3119 3119 3118
3160 3160 3160 3160 3160 3160 3160 3160 3159 3159 3159 3159 3159 3159 3158 3158 3158 3157 3157 3157 3156 3156 3156 3156 3155 3155 3155 3155 3154 3154 3154 3154 3154 3153 3153 3153 3152 3152 3152 3151 3151 3151 3150 3150 3150 3149 3149 3148 3148 3148 3147 3147 3147 3146 3146 3146 3145 3145 3145 3144 3144 3144 3143 3143 3142 3142 3141 3140 3140 3139 3139 3138 3138 3137 3136 3136 3135 3134 3134 3133 3133 3132 3131 3131 3130 3129 3129 3128 3127 3126 3126 3125 3124 3124 3123 3123 3122 3121 3120 3120 3119 3118 3118
3160 3160 3160 3160 3160 3160 3160 3159 3159 3159 3159 3159 3159 3159 3158 3158 3158 3157 3157 3157 3156 3156 3156 3156 3155 3155 3155 3155 3154 3154 3154 3154 3154 3153 3153 3153 3152 3152 3151 3151 3151 3150 3150 3150 3149 3149 3149 3148 3148 3148 3147 3147 3147 3146 3146 3146 3145 3145 3145 3144 3144 3144 3143 3143 3142 3141 3141 3140 3140 3139 3139 3138 3137 3137 3136 3135 3135 3134 3134 3133 3132 3132 3131 3130 3130 3129 3128 3128 3127 3126 3125 3125 3124 3123 3123 3122 3121 3120 3120 3119 3118 3118 3117
3160 3160 3160 3160 3160 3160 3159 3159 3159 3159 3159 3159 3159 3158 3158 3158 3157 3157 3157 3157 3156 3156 3156 3155 3155 3155 3155 3154 3154 3154 3154 3154 3153 3153 3153 3153 3152 3152 3151 3151 3151 3150 3150 3150 3149 3149 3148 3148 3148 3147 3147 3147 3147 3146 3146 3146 3145 3145 3145 3144 3144 3143 3143 3142 3142 3141 3141 3140 3139 3139 3139 3138 3137 3136 3136 3135 3134 3134 3133 3133 3132 3131 3131 3130 3129 3129 3128 3127 3127 3126 3125 3124 3124 3123 3122 3121 3121 3120 3119 3119 3118 3117 3116
3160 3160 3160 3160 3160 3160 3159 3159 3159 3159 3159 3159 3159 3158 3158 3158 3157 3157 3157 3156 3156 3156 3156 3155 3155 3155 3155 3154 3154 3154 3154 3154 3153 3153 3153 3152 3152 3152 3151 3151 3151 3150 3150 3149 3149 3149 3148 3148 3148 3147 3147 3147 3147 3146 3146 3146 3145 3145 3144 3144 3144 3143 3143 3142 3142 3141 3140 3140 3139 3139 3138 3138 3137 3136 3136 3135 3134 3134 3133 3132 3132 3131 3130 3130 3129 3129 3128 3127 3126 3126 3125 3124 3124 3123 3122 3121 3120 3119 3119 3118 3117 3116 3116
3160 3160 3160 3160 3159 3159 3159 3159 3159 3159 3159 3159 3159 3158 3158 3158 3157 3157 3157 3156 3156 3156 3156 3155 3155 3155 3154 3154 3154 3154 3154 3154 3153 3153 3153 3152 3152 3152 3151 3151 3150 3150 3150 3149 3149 3149 3148 3148 3148 3147 3147 3147 3146 3146 3146 3145 3145 3145 3144 3144 3144 3143 3142 3142 3141 3141 3140 3140 3139 3139 3138 3137 3137 3136 3135 3135 3134 3134 3133 3132 3131 3131 3130 3129 3129 3128 3128 3127 3126 3125 3125 3124 3123 3122 3122 3121 3120 3119 3118 3117 3117 3116 3115
3160 3159 3159 3159 3159 3159 3159 3159 3159 3159 3159 3159 3158 3158 3158 3157 3157 3157 3157 3156 3156 3156 3155 3155 3155 3155 3154 3154 3154 3154 3154 3154 3153 3153 3153 3152 3152 3152 3151 3151 3150 3150 3149 3149 3149 3148 3148 3148 3148 3147 3147 3147 3146 3146 3146 3145 3145 3145 3144 3144 3143 3143 3142 3142 3141 3141 3140 3139 3139 3138 3138 3137 3136 3136 3135 3134 3134 3133 3133 3132 3131 3130 3130 3129 3129 3128 3127 3126 3126 3125 3124 3124 3123 3122 3121 3120 3119 3119 3118 3117 3116 3115 3114
3159 3159 3159 3159 3159 3159 3159 3159 3159 3159 3159 3159 3158 3158 3158 3157 3157 3157 3156 3156 3156 3156 3155 3155 3155 3155 3154 3154 3154 3154 3154 3153 3153 3153 3152 3152 3152 3151 3151 3151 3150 3150 3149 3149 3149 3148 3148 3148 3148 3147 3147 3147 3146 3146 3146 3145 3145 3144 3144 3144 3143 3143 3142 3142 3141 3140 3140 3139 3139 3138 3137 3137 3136 3135 3135 3134 3134 3133 3132 3132 3131 3130 3129 3129 3128 3128 3127 3126 3125 3124 3124 3123 3122 3121 3121 3120 3119 3118 3117 3116 3115 3114 3114
3159 3159 3159 3159 3159 3159 3159 3159 3159 3159 3159 3158 3158 3158 3157 3157 3157 3157 3156 3156 3156 3156 3155 3155 3155 3155 3154 3154 3154 3154 3153 3153 3153 3153 3152 3152 3152 3151 3151 3150 3150 3149 3149 3149 3149 3148 3148 3148 3148 3147 3147 3147 3146 3146 3146 3145 3145 3144 3144 3144 3143 3143 3142 3141 3141 3140 3139 3139 3138 3138 3137 3137 3136 3135 3134 3134 3133 3133 3132 3131 3130 3130 3129 3129 3128 3127 3126 3126 3125 3124 3123 3122 3122 3121 3120 3119 3119 3118 3117 3116 3115 3114 3113
3159 3159 3159 3159 3159 3159 3159 3159 3159 3159 3158 3158 3158 3157 3157 3157 3157 3156 3156 3156 3156 3155 3155 3155 3155 3154 3154 3154 3154 3154 3153 3153 3153 3152 3152 3152 3151 3151 3151 3150 3150 3149 3149 3149 3148 3148 3148 3148 3148 3147 3147 3147 3146 3146 3145 3145 3145 3144 3144 3144 3143 3142 3142 3141 3141 3140 3139 3139 3138 3138 3137 3136 3136 3135 3134 3134 3133 3132 3132 3131 3130 3129 3129 3128 3127 3127 3126 3125 3124 3124 3123 3122 3121 3120 3119 3118 3118 3117 3116 3115 3114 3113 3112
3159 3159 3159 3159 3159 3159 3159 3159 3159 3158 3158 3158 3158 3157 3157 3157 3157 3156 3156 3156 3156 3155 3155 3155 3155 3154 3154 3154 3154 3153 3153 3153 3153 3152 3152 3152 3151 3151 3150 3150 3150 3149 3149 3149 3149 3148 3148 3148 3148 3147 3147 3147 3146 3146 3145 3145 3145 3144 3144 3143 3143 3142 3142 3141 3140 3140 3139 3139 3138 3137 3137 3136 3135 3135 3134 3133 3133 3132 3131 3130 3130 3129 3128 3128 3127 3126 3125 3124 3124 3123 3122 3121 3120 3119 3118 3118 3117 3116 3115 3114 3113 3112 3111
3159 3159 3159 3159 3159 3159 3159 3158 3158 3158 3158 3158 3157 3157 3157 3157 3156 3156 3156 3156 3155 3155 3155 3155 3154 3154 3154 3154 3154 3153 3153 3153 3152 3152 3152 3151 3151 3151 3150 3150 3149 3149 3149 3149 3149 3148 3148 3148 3147 3147 3147 3146 3146 3146 3145 3145 3144 3144 3144 3143 3143 3142 3141 3141 3140 3139 3139 3138 3138 3137 3136 3136 3135 3134 3134 3133 3132 3132 3131 3130 3129 3129 3128 3127 3126 3125 3124 3124 3123 3122 3121 3120 3119 3118 3117 3117 3116 3114 3114 3113 3112 3111 3110
3159 3159 3159 3159 3159 3158 3158 3158 3158 3158 3158 3158 3157 3157 3157 3157 3156 3156 3156 3156 3155 3155 3155 3155 3154 3154 3154 3154 3154 3153 3153 3153 3152 3152 3152 3151 3151 3151 3150 3150 3149 3149 3149 3149 3148 3148 3148 3148 3147 3147 3147 3146 3146 3146 3145 3145 3144 3144 3143 3143 3142 3142 3141 3141 3140 3139 3139 3138 3138 3137 3136 3135 3135 3134 3133 3133 3132 3131 3130 3130 3129 3128 3127 3126 3125 3125 3124 3123 3122 3121 3120 3119 3118 3117 3116 3115 3114 3114 3113 3112 3111 3110 3109
3159 3159 3159 3158 3158 3158 3158 3158 3158 3158 3157 3157 3157 3157 3157 3156 3156 3156 3156 3155 3155 3155 3155 3154 3154 3154 3154 3154 3154 3153 3153 3153 3152 3152 3152 3151 3151 3151 3150 3150 3149 3149 3149 3149 3148 3148 3148 3148 3147 3147 3147 3146 3146 3145 3145 3144 3144 3144 3143 3143 3142 3141 3141 3140 3140 3139 3139 3138 3137 3137 3136 3135 3134 3134 3133 3132 3131 3131 3130 3129 3128 3128 3127 3126 3125 3124 3123 3122 3121 3120 3119 3118 3117 3116 3115 3114 3113 3112 3111 3110 3109 3108 3107
3159 3158 3158 3158 3158 3158 3158 3158 3157 3157 3157 3157 3157 3157 3156 3156 3156 3156 3155 3155 3155 3155 3155 3154 3154 3154 3154 3154 3153 3153 3153 3153 3152 3152 3152 3151 3151 3150 3150 3150 3149 3149 3149 3149 3148 3148 3148 3147 3147 3147 3146 3146 3146 3145 3145 3144 3144 3143 3143 3142 3142 3141 3141 3140 3139 3139 3138 3137 3137 3136 3135 3135 3134 3133 3133 3132 3131 3130 3129 3129 3128 3127 3126 3125 3124 3123 3122 3121 3120 3119 3118 3117 3116 3115 3114 3113 3112 3111 3110 3109 3108 3107 3106
3158 3158 3158 3158 3158 3158 3157 3157 3157 3157 3157 3157 3157 3156 3156 3156 3156 3156 3155 3155 3155 3155 3154 3154 3154 3154 3154 3154 3153 3153 3153 3152 3152 3152 3151 3151 3151 3150 3150 3149 3149 3149 3149 3148 3148 3148 3147 3147 3147 3146 3146 3146 3145 3145 3144 3144 3144 3143 3142 3142 3141 3141 3140 3139 3139 3138 3138 3137 3136 3135 3135 3134 3133 3133 3132 3131 3130 3129 3129 3128 3127 3126 3125 3124 3123 3122 3121 3120 3119 3118 3117 3116 3115 3114 3113 3112 3111 3110 3109 3108 3107 3105 3104
3158 3158 3158 3157 3157 3157 3157 3157 3157 3157 3157 3156 3156 3156 3156 3156 3156 3155 3155 3155 3155 3155 3154 3154 3154 3154 3154 3153 3153 3153 3152 3152 3152 3151 3151 3151 3151 3150 3150 3149 3149 3149 3148 3148 3148 3147 3147 3147 3146 3146 3146 3145 3145 3144 3144 3144 3143 3142 3142 3141 3141 3140 3139 3139 3138 3138 3137 3136 3136 3135 3134 3134 3133 3132 3131 3130 3129 3129 3128 3127 3126 3125 3124 3123 3122 3121 3120 3119 3118 3117 3116 3114 3114 3112 3111 3110 3109 3108 3107 3106 3105 3104 3103
3157 3157 3157 3157 3157 3157 3157 3157 3157 3156 3156 3156 3156 3156 3156 3156 3155 3155 3155 3155 3155 3154 3154 3154 3154 3154 3153 3153 3153 3152 3152 3152 3151 3151 3151 3151 3150 3150 3149 3149 3149 3149 3148 3148 3147 3147 3147 3146 3146 3146 3145 3145 3144 3144 3144 3143 3142 3142 3141 3141 3140 3139 3139 3138 3138 3137 3136 3135 3135 3134 3133 3133 3132 3131 3130 3129 3129 3128 3127 3126 3125 3124 3123 3122 3121 3119 3119 3117 3116 3115 3114 3113 3112 3111 3110 3109 3107 3106 3105 3104 3103 3102 3101
3157 3157 3157 3157 3157 3157 3157 3157 3156 3156 3156 3156 3156 3156 3156 3156 3155 3155 3155 3155 3154 3154 3154 3154 3153 3153 3153 3153 3152 3152 3152 3151 3151 3151 3150 3150 3150 3149 3149 3149 3149 3148 3148 3148 3147 3147 3146 3146 3146 3145 3145 3144 3144 3144 3143 3142 3142 3141 3141 3140 3139 3139 3138 3138 3137 3136 3135 3135 3134 3133 3132 3132 3131 3130 3129 3128 3127 3126 3125 3124 3124 3122 3121 3120 3119 3118 3117 3116 3115 3114 3112 3111 3110 3109 3108 3107 3105 3104 3103 3102 3101 3100 3099
3157 3157 3157 3157 3157 3156 3156 3156 3156 3156 3156 3156 3156 3156 3156 3155 3155 3155 3154 3154 3154 3154 3154 3153 3153 3153 3153 3152 3152 3152 3152 3151 3151 3150 3150 3150 3149 3149 3149 3149 3148 3148 3148 3147 3147 3146 3146 3145 3145 3145 3144 3144 3143 3143 3142 3142 3141 3141 3140 3139 3139 3138 3138 3137 3136 3135 3134 3134 3133 3132 3131 3131 3130 3129 3128 3127 3126 3125 3124 3123 3122 3121 3120 3119 3118 3117 3115 3114 3113 3112 3111 3109 3108 3107 3106 3105 3104 3102 3101 3100 3099 3098 3097
3157 3157 3157 3157 3156 3156 3156 3156 3156 3156 3156 3156 3155 3155 3155 3155 3155 3154 3154 3154 3154 3154 3153 3153 3153 3152 3152 3152 3152 3151 3151 3151 3150 3150 3150 3149 3149 3149 3149 3148 3148 3147 3147 3147 3146 3146 3145 3145 3144 3144 3144 3143 3143 3142 3142 3141 3141 3140 3139 3139 3138 3138 3137 3136 3135 3134 3134 3133 3132 3131 3130 3129 3129 3128 3127 3126 3125 3124 3123 3122 3121 3119 3118 3117 3116 3115 3114 3112 3111 3110 3109 3108 3106 3105 3104 3103 3102 3100 3099 3098 3097 3096 3095
3157 3157 3157 3156 3156 3156 3156 3156 3156 3156 3155 3155 3155 3155 3155 3154 3154 3154 3154 3154 3153 3153 3153 3153 3152 3152 3152 3152 3151 3151 3151 3150 3150 3150 3149 3149 3149 3148 3148 3148 3147 3147 3147 3146 3146 3145 3145 3144 3144 3144 3143 3143 3142 3142 3141 3140 3140 3139 3139 3138 3138 3137 3136 3135 3134 3134 3133 3132 3131 3130 3129 3129 3128 3127 3126 3124 3124 3122 3121 3120 3119 3118 3117 3115 3114 3113 3112 3111 3109 3108 3107 3106 3104 3103 3102 3101 3100 3099 3097 3096 3095 3094 3093
3156 3156 3156 3156 3156 3156 3155 3155 3155 3155 3155 3155 3154 3154 3154 3154 3154 3154 3153 3153 3153 3153 3152 3152 3152 3152 3151 3151 3151 3150 3150 3150 3149 3149 3149 3149 3148 3148 3148 3147 3147 3146 3146 3146 3145 3145 3144 3144 3144 3143 3143 3142 3142 3141 3140 3140 3139 3139 3138 3137 3137 3136 3135 3134 3134 3133 3132 3131 3130 3129 3128 3127 3126 3125 3124 3123 3122 3121 3120 3119 3117 3116 3115 3114 3113 3111 3110 3109 3108 3106 3105 3104 3103 3102 3100 3099 3098 3097 3095 3094 3093 3092 3091
3156 3156 3156 3156 3155 3155 3155 3155 3155 3155 3154 3154 3154 3154 3154 3154 3154 3153 3153 3153 3153 3152 3152 3152 3151 3151 3151 3151 3150 3150 3150 3149 3149 3149 3148 3148 3148 3147 3147 3147 3146 3146 3145 3145 3145 3144 3144 3144 3143 3143 3142 3142 3141 3140 3140 3139 3139 3138 3137 3136 3136 3135 3134 3133 3132 3131 3131 3130 3129 3128 3127 3126 3125 3124 3123 3122 3120 3119 3118 3117 3116 3114 3113 3112 3111 3109 3108 3107 3106 3105 3104 3102 3101 3100 3099 3097 3096 3095 3094 3092 3091 3090 3089
3156 3156 3155 3155 3155 3155 3155 3154 3154 3154 3154 3154 3154 3154 3153 3153 3153 3153 3153 3152 3152 3152 3152 3151 3151 3151 3150 3150 3150 3149 3149 3149 3149 3148 3148 3148 3147 3147 3146 3146 3146 3145 3145 3144 3144 3144 3143 3143 3142 3142 3141 3141 3140 3139 3139 3139 3138 3137 3136 3135 3135 3134 3133 3132 3131 3130 3129 3129 3128 3127 3126 3124 3124 3122 3121 3120 3119 3118 3117 3115 3114 3113 3112 3110 3109 3108 3107 3105 3104 3103 3102 3100 3099 3098 3097 3095 3094 3093 3092 3090 3089 3088 3086
3156 3155 3155 3155 3155 3155 3154 3154 3154 3154 3154 3154 3153 3153 3153 3153 3153 3152 3152 3152 3152 3151 3151 3151 3150 3150 3150 3149 3149 3149 3149 3148 3148 3148 3147 3147 3147 3146 3146 3145 3145 3144 3144 3144 3143 3143 3143 3142 3141 3141 3140 3140 3139 3139 3138 3137 3137 3136 3135 3134 3134 3133 3132 3131 3130 3129 3128 3127 3126 3125 3124 3123 3122 3121 3119 3118 3117 3116 3115 3114 3113 3111 3110 3109 3107 3106 3105 3104 3102 3101 3100 3099 3097 3096 3095 3094 3092 3091 3089 3088 3087 3085 3084
3155 3155 3155 3155 3155 3154 3154 3154 3154 3153 3153 3153 3153 3153 3152 3152 3152 3152 3151 3151 3151 3151 3150 3150 3150 3149 3149 3149 3149 3149 3148 3148 3147 3147 3147 3146 3146 3145 3145 3145 3144 3144 3144 3143 3143 3142 3142 3141 3140 3140 3139 3139 3138 3138 3137 3136 3135 3135 3134 3133 3132 3131 3130 3129 3129 3128 3127 3126 3124 3124 3122 3121 3120 3119 3118 3117 3115 3114 3113 3112 3111 3109 3108 3107 3106 3104 3103 3102 3100 3099 3098 3097 3095 3094 3093 3091 3090 3089 3087 3086 3084 3083 3082
3155 3155 3155 3154 3154 3154 3154 3154 3153 3153 3153 3153 3152 3152 3152 3152 3151 3151 3151 3151 3150 3150 3150 3149 3149 3149 3149 3149 3148 3148 3148 3147 3147 3147 3146 3146 3145 3145 3144 3144 3144 3143 3143 3142 3142 3141 3140 3140 3139 3139 3138 3138 3137 3136 3136 3135 3134 3133 3133 3132 3131 3130 3129 3128 3127 3126 3125 3124 3123 3122 3121 3120 3119 3117 3116 3115 3114 3112 3111 3110 3109 3108 3106 3105 3104 3102 3101 3100 3099 3097 3096 3094 3093 3092 3090 3089 3088 3087 3085 3084 3082 3081 3079
3155 3155 3154 3154 3154 3154 3154 3153 3153 3153 3152 3152 3152 3152 3151 3151 3151 3151 3150 3150 3150 3149 3149 3149 3149 3148 3148 3148 3148 3147 3147 3147 3146 3146 3145 3145 3144 3144 3144 3143 3143 3142 3141 3141 3140 3140 3139 3139 3138 3138 3137 3136 3136 3135 3134 3134 3133 3132 3131 3130 3129 3128 3128 3127 3126 3125 3124 3123 3122 3120 3119 3118 3117 3116 3114 3113 3112 3111 3109 3108 3107 3106 3104 3103 3102 3100 3099 3098 3096 3095 3094 3092 3091 3089 3088 3087 3085 3084 3083 3081 3080 3078 3077
3154 3154 3154 3154 3154 3154 3153 3153 3152 3152 3152 3152 3151 3151 3151 3151 3150 3150 3150 3149 3149 3149 3149 3148 3148 3148 3147 3147 3147 3146 3146 3146 3145 3145 3145 3144 3144 3143 3143 3142 3142 3141 3140 3140 3139 3139 3138 3138 3137 3136 3136 3135 3134 3134 3133 3132 3131 3130 3129 3129 3128 3127 3126 3125 3124 3123 3122 3121 3120 3119 3118 3116 3115 3114 3113 3112 3110 3109 3108 3106 3105 3104 3102 3101 3100 3099 3097 3096 3094 3093 3092 3090 3089 3087 3086 3084 3083 3081 3080 3079 3077 3076 3074
3154 3154 3154 3154 3154 3153 3153 3153 3152 3152 3151 3151 3151 3151 3150 3150 3150 3149 3149 3149 3149 3148 3148 3148 3147 3147 3146 3146 3146 3146 3145 3145 3144 3144 3144 3144 3143 3142 3142 3141 3141 3140 3139 3139 3139 3138 3137 3136 3136 3135 3134 3134 3133 3132 3132 3131 3130 3129 3128 3127 3126 3125 3124 3124 3123 3122 3120 3119 3118 3117 3116 3115 3114 3113 3111 3110 3109 3107 3106 3105 3103 3102 3100 3099 3098 3096 3095 3094 3092 3091 3089 3088 3086 3085 3083 3082 3080 3079 3078 3076 3075 3073 3072
3154 3153 3153 3153 3153 3153 3153 3152 3152 3151 3151 3151 3150 3150 3150 3149 3149 3149 3149 3148 3148 3148 3147 3147 3147 3146 3146 3145 3145 3145 3144 3144 3144 3143 3143 3143 3142 3141 3141 3140 3139 3139 3139 3138 3137 3137 3136 3135 3134 3134 3133 3132 3132 3131 3130 3129 3129 3128 3127 3126 3125 3124 3123 3122 3121 3120 3119 3118 3117 3115 3114 3113 3112 3111 3109 3108 3107 3106 3104 3103 3102 3100 3099 3097 3096 3094 3093 3092 3090 3089 3087 3086 3084 3083 3081 3079 3078 3077 3075 3074 3072 3071 3069
3153 3153 3153 3153 3153 3152 3152 3152 3151 3151 3150 3150 3150 3149 3149 3149 3149 3148 3148 3148 3147 3147 3146 3146 3146 3145 3145 3145 3144 3144 3144 3143 3143 3142 3142 3141 3141 3140 3140 3139 3139 3138 3137 3137 3136 3135 3135 3134 3134 3133 3132 3131 3130 3130 3129 3128 3127 3126 3125 3124 3123 3122 3121 3120 3119 3118 3117 3116 3115 3114 3113 3112 3110 3109 3108 3106 3105 3104 3103 3101 3100 3098 3097 3095 3094 3092 3091 3089 3088 3086 3085 3083 3082 3080 3079 3077 3075 3074 3072 3071 3069 3068 3066
3153 3153 3152 3152 3152 3152 3152 3151 3151 3150 3150 3149 3149 3149 3149 3148 3148 3148 3147 3147 3146 3146 3146 3145 3145 3144 3144 3144 3144 3143 3143 3142 3142 3141 3141 3140 3140 3139 3139 3138 3138 3137 3136 3136 3135 3134 3134 3133 3132 3132 3131 3130 3129 3129 3128 3127 3126 3125 3124 3123 3122 3121 3120 3119 3118 3116 3115 3114 3113 3112 3111 3109 3109 3107 3106 3104 3103 3102 3101 3099 3098 3096 3094 3093 3091 3090 3089 3087 3085 3084 3082 3081 3079 3078 3076 3074 3073 3071 3069 3068 3066 3065 3063
3152 3152 3152 3152 3151 3151 3151 3151 3150 3150 3149 3149 3149 3149 3148 3148 3147 3147 3146 3146 3146 3145 3145 3145 3144 3144 3143 3143 3143 3142 3142 3141 3141 3140 3140 3139 3139 3138 3138 3137 3136 3136 3135 3134 3134 3133 3133 3132 3131 3130 3130 3129 3128 3127 3127 3126 3125 3124 3123 3122 3120 3119 3118 3117 3116 3115 3114 3112 3111 3110 3109 3108 3106 3105 3104 3102 3101 3099 3098 3097 3095 3094 3092 3090 3089 3088 3086 3084 3083 3081 3080 3078 3077 3075 3073 3072 3070 3068 3067 3065 3064 3062 3060
3152 3152 3151 3151 3151 3151 3150 3150 3150 3149 3149 3149 3148 3148 3148 3147 3147 3146 3146 3145 3145 3145 3144 3144 3144 3143 3142 3142 3142 3141 3140 3140 3140 3139 3139 3138 3138 3137 3136 3136 3135 3135 3134 3133 3133 3132 3131 3130 3130 3129 3128 3128 3127 3126 3125 3124 3123 3122 3121 3120 3119 3118 3117 3116 3114 3113 3112 3110 3109 3108 3107 3105 3104 3103 3101 3100 3098 3097 3095 3094 3093 3091 3089 3088 3086 3085 3083 3082 3080 3078 3077 3075 3074 3072 3071 3069 3067 3065 3064 3062 3060 3059 3057
3151 3151 3151 3151 3150 3150 3150 3149 3149 3149 3149 3148 3148 3148 3147 3147 3146 3146 3145 3145 3144 3144 3144 3143 3143 3142 3142 3141 3140 3140 3139 3139 3139 3138 3137 3137 3136 3136 3135 3134 3134 3133 3133 3132 3131 3130 3130 3129 3128 3128 3127 3126 3125 3124 3124 3123 3122 3121 3120 3119 3118 3116 3115 3114 3113 3111 3110 3109 3107 3106 3104 3103 3101 3100 3098 3097 3095 3094 3093 3091 3090 3088 3087 3085 3084 3082 3080 3079 3077 3075 3074 3072 3071 3069 3068 3066 3064 3063 3061 3059 3058 3056 3054
3151 3150 3150 3150 3150 3149 3149 3149 3149 3148 3148 3148 3147 3147 3146 3146 3145 3145 3144 3144 3144 3143 3143 3142 3142 3141 3141 3140 3139 3139 3138 3138 3137 3137 3136 3135 3135 3134 3134 3133 3133 3132 3131 3130 3130 3129 3128 3128 3127 3126 3125 3124 3124 3123 3122 3121 3120 3119 3118 3117 3116 3115 3114 3112 3111 3109 3108 3107 3105 3104 3102 3100 3099 3097 3096 3094 3093 3091 3090 3089 3087 3086 3084 3082 3081 3079 3077 3076 3074 3072 3071 3069 3068 3066 3064 3063 3061 3060 3058 3057 3055 3053 3052
3150 3150 3149 3149 3149 3149 3149 3148 3148 3148 3147 3147 3146 3146 3145 3145 3144 3144 3144 3143 3143 3142 3142 3141 3141 3140 3139 3139 3139 3138 3137 3136 3136 3135 3134 3134 3134 3133 3133 3132 3131 3131 3130 3129 3128 3128 3127 3126 3125 3125 3124 3123 3122 3121 3120 3119 3119 3118 3117 3115 3114 3113 3112 3110 3109 3108 3106 3104 3103 3101 3100 3098 3097 3095 3094 3092 3091 3089 3088 3086 3084 3083 3081 3079 3078 3076 3074 3073 3071 3069 3068 3066 3064 3063 3061 3060 3058 3057 3055 3054 3052 3050 3049
3149 3149 3149 3149 3148 3148 3148 3148 3147 3147 3146 3146 3145 3145 3145 3144 3144 3143 3143 3142 3142 3141 3141 3140 3140 3139 3139 3138 3137 3137 3136 3135 3134 3134 3133 3133 3132 3131 3131 3131 3131 3130 3129 3128 3127 3126 3125 3125 3124 3124 3123 3122 3121 3120 3119 3118 3117 3116 3115 3114 3113 3111 3110 3109 3107 3105 3104 3103 3101 3099 3098 3096 3094 3093 3091 3090 3088 3087 3085 3083 3081 3080 3078 3076 3075 3073 3071 3070 3068 3066 3065 3063 3062 3060 3058 3057 3055 3054 3052 3050 3049 3047 3045
3149 3148 3148 3148 3148 3147 3147 3147 3146 3146 3145 3145 3144 3144 3144 3143 3143 3142 3142 3141 3141 3140 3140 3139 3139 3139 3138 3137 3136 3136 3135 3134 3133 3133 3132 3131 3130 3130 3129 3129 3129 3129 3129 3128 3127 3125 3124 3124 3123 3123 3122 3121 3120 3119 3118 3117 3116 3114 3113 3112 3111 3109 3108 3107 3105 3104 3102 3101 3099 3098 3096 3094 3093 3091 3089 3087 3085 3084 3082 3080 3079 3077 3075 3073 3071 3070 3068 3067 3065 3064 3062 3060 3059 3057 3055 3054 3052 3050 3049 3047 3045 3044 3042
3148 3148 3147 3147 3147 3146 3146 3146 3145 3145 3144 3144 3144 3143 3143 3142 3142 3141 3141 3140 3140 3139 3139 3138 3138 3137 3137 3136 3135 3134 3134 3133 3132 3131 3130 3130 3129 3128 3128 3127 3126 3126 3126 3126 3126 3125 3124 3123 3122 3122 3121 3120 3119 3118 3117 3115 3114 3113 3112 3110 3109 3108 3106 3105 3103 3102 3100 3099 3097 3096 3094 3092 3090 3088 3086 3084 3083 3081 3079 3077 3075 3074 3072 3070 3068 3067 3065 3064 3062 3061 3059 3058 3056 3054 3052 3051 3049 3047 3045 3044 3042 3040 3039
3147 3147 3146 3146 3146 3145 3145 3145 3144 3144 3144 3143 3143 3142 3142 3141 3141 3140 3140 3139 3139 3139 3138 3137 3137 3136 3135 3135 3134 3134 3133 3132 3131 3130 3129 3128 3128 3127 3126 3125 3124 3123 3123 3123 3123 3123 3123 3121 3120 3120 3119 3118 3117 3116 3115 3114 3113 3112 3110 3109 3107 3106 3104 3103 3101 3100 3098 3097 3095 3093 3092 3090 3088 3086 3084 3082 3080 3078 3076 3074 3072 3070 3069 3067 3065 3064 3062 3061 3059 3058 3056 3055 3053 3051 3049 3048 3046 3044 3042 3041 3039 3037 3035
3146 3146 3146 3145 3145 3144 3144 3144 3144 3143 3142 3142 3141 3141 3140 3140 3140 3139 3139 3138 3138 3137 3137 3136 3135 3135 3134 3134 3133 3132 3132 3131 3130 3129 3128 3127 3126 3125 3124 3123 3122 3121 3120 3119 3119 3119 3119 3119 3118 3118 3118 3116 3115 3114 3114 3113 3111 3110 3109 3107 3106 3104 3103 3101 3099 3098 3096 3094 3093 3091 3089 3087 3085 3083 3081 3079 3077 3075 3073 3071 3069 3067 3065 3064 3062 3060 3059 3058 3056 3055 3053 3052 3050 3049 3047 3045 3043 3041 3039 3038 3036 3034 3032
3145 3145 3144 3144 3144 3144 3143 3143 3142 3142 3141 3141 3140 3140 3139 3139 3139 3138 3138 3137 3137 3136 3135 3135 3134 3134 3133 3133 3132 3131 3130 3130 3129 3128 3127 3126 3125 3124 3123 3121 3120 3119 3118 3117 3116 3115 3114 3114 3114 3114 3114 3114 3113 3113 3112 3111 3109 3108 3107 3105 3104 3102 3101 3099 3098 3096 3094 3092 3090 3088 3086 3084 3082 3080 3079 3076 3074 3072 3070 3068 3066 3064 3062 3060 3059 3057 3056 3055 3053 3052 3050 3049 3047 3045 3044 3042 3040 3038 3036 3034 3033 3031 3029
3144 3144 3144 3143 3143 3143 3142 3142 3141 3141 3140 3139 3139 3139 3138 3138 3137 3137 3136 3136 3135 3135 3134 3134 3133 3133 3132 3131 3131 3130 3129 3129 3128 3127 3126 3125 3124 3123 3122 3121 3119 3118 3116 3114 3114 3113 3112 3111 3109 3109 3110 3110 3110 3109 3109 3109 3107 3106 3104 3103 3102 3100 3099 3098 3096 3094 3092 3090 3088 3086 3084 3081 3079 3078 3076 3074 3071 3069 3067 3064 3062 3060 3059 3058 3056 3055 3053 3052 3050 3049 3047 3045 3044 3042 3040 3039 3037 3035 3033 3031 3029 3028 3026
3143 3143 3142 3142 3142 3142 3141 3141 3140 3140 3139 3139 3138 3138 3137 3136 3136 3136 3135 3135 3134 3134 3133 3133 3132 3132 3131 3130 3129 3129 3128 3128 3127 3126 3125 3124 3123 3123 3122 3120 3119 3118 3116 3114 3112 3111 3110 3109 3107 3105 3105 3106 3106 3105 3105 3105 3105 3104 3102 3101 3099 3099 3097 3096 3094 3092 3090 3088 3086 3084 3081 3079 3077 3075 3073 3070 3068 3066 3064 3061 3059 3058 3056 3055 3053 3052 3050 3049 3047 3045 3043 3041 3040 3038 3037 3035 3033 3031 3030 3028 3026 3025 3023
3142 3142 3141 3141 3141 3140 3140 3140 3139 3139 3138 3138 3137 3136 3136 3135 3135 3134 3134 3134 3133 3133 3132 3132 3131 3130 3130 3129 3128 3128 3127 3126 3125 3125 3124 3124 3123 3122 3121 3120 3119 3117 3116 3114 3112 3110 3108 3107 3105 3104 3101 3101 3102 3103 3102 3101 3101 3100 3099 3098 3097 3096 3095 3094 3092 3090 3088 3086 3084 3081 3079 3077 3075 3072 3070 3068 3065 3063 3060 3059 3057 3055 3054 3052 3050 3049 3047 3045 3043 3041 3039 3038 3036 3034 3033 3032 3030 3028 3026 3025 3023 3022 3020
3141 3140 3140 3140 3140 3139 3139 3139 3138 3138 3137 3136 3136 3135 3135 3134 3134 3133 3133 3132 3132 3131 3131 3130 3130 3129 3129 3128 3127 3127 3126 3125 3124 3124 3123 3122 3121 3120 3119 3118 3117 3116 3114 3113 3111 3110 3108 3106 3104 3102 3100 3097 3097 3098 3099 3099 3098 3097 3096 3095 3094 3094 3093 3091 3089 3088 3086 3084 3081 3079 3077 3075 3072 3070 3067 3065 3062 3060 3058 3056 3055 3053 3051 3049 3047 3045 3044 3042 3040 3038 3036 3034 3033 3031 3029 3028 3026 3024 3023 3021 3020 3018 3017
3139 3139 3139 3139 3139 3138 3138 3137 3137 3136 3136 3135 3135 3134 3134 3134 3133 3132 3132 3131 3131 3130 3130 3129 3129 3128 3128 3127 3126 3126 3125 3124 3123 3123 3122 3121 3120 3119 3118 3117 3116 3115 3114 3112 3111 3109 3108 3106 3104 3101 3099 3097 3094 3093 3094 3095 3095 3094 3092 3092 3091 3090 3090 3089 3087 3085 3083 3081 3079 3076 3074 3072 3070 3067 3065 3062 3060 3058 3056 3054 3052 3050 3048 3046 3044 3042 3040 3039 3037 3035 3033 3031 3029 3028 3026 3024 3023 3021 3019 3017 3016 3014 3013
3139 3138 3138 3138 3137 3137 3137 3136 3136 3135 3134 3134 3134 3133 3133 3133 3132 3131 3131 3130 3130 3129 3129 3129 3128 3127 3127 3125 3125 3124 3124 3123 3122 3121 3121 3120 3119 3118 3117 3116 3115 3114 3113 3111 3110 3109 3107 3105 3103 3101 3099 3096 3094 3092 3090 3091 3091 3091 3089 3089 3088 3087 3086 3085 3084 3082 3080 3078 3076 3074 3071 3069 3067 3064 3062 3059 3057 3055 3054 3052 3050 3048 3046 3044 3042 3040 3038 3036 3034 3032 3030 3028 3026 3024 3022 3021 3019 3017 3015 3014 3012 3010 3008